Simultaneous Nadir Overpasses (SNOs) Predictions

Prediction of SNOs between GOES-15 and FY3D Satellite Orbit:

Table of predicted SNOs for the next 14.0 days since TLE Epoch: 4/2/2022
Index Date Time (GOES-15) GOES-15 Lat,Lon FY3D Lat,Lon Distance(km) Time Diff (sec)
1 04/04/2022 10:22:05 0.11,-128.40 0.15,-128.46 8.17 80
2 04/06/2022 22:23:31 -0.11,-128.42 -0.37,-129.43 116.36 80
3 04/07/2022 22:07:47 -0.12,-128.42 0.63,-124.98 391.44 80
4 04/09/2022 10:30:06 0.12,-128.41 0.58,-130.36 223.33 80
5 04/10/2022 10:09:03 0.12,-128.40 -0.42,-125.91 284.01 80
6 04/11/2022 22:31:32 -0.12,-128.41 -0.80,-131.33 333.58 80
7 04/12/2022 22:15:49 -0.13,-128.41 0.20,-126.88 173.74 80
8 04/14/2022 10:38:08 0.12,-128.39 1.01,-132.26 441.31 80
9 04/15/2022 10:17:05 0.13,-128.39 0.00,-127.81 65.55 80
